Погода в Лесном Никольском

Россия / Ульяновская область     54°36′00″N   49°27′11″E
темп.,
°C
ветер,
м/с
пор.,
м/с
влажн.,
%
обл.,
%
осадки,
мм/ч
давл.,
гПа
погр.,
м
19 апреля, пн
пн1901:00+5всв6125767 0.0 1023423
04:00+4всв6127172 0.0 1023431
07:00+3всв71362100 0.0 1024565
10:00+5всв81054100 0.0 1025900
13:00+8в81048100 0.0 10251486
16:00+8в8105399 0.0 10251438
19:00+7в61159100 0.0 10261311
22:00+6в61151100 0.0 1027731
20 апреля, вт
вт2001:00+4в6135558 0.0 1028663
04:00+2в613565 0.0 1029462
07:00+2вюв612520 0.0 1030611
10:00+5вюв810370 0.0 1030967
13:00+8вюв89300 0.0 10301345
16:00+10вюв89260 0.0 10281458
19:00+8вюв61134100 0.0 1027695
22:00+5вюв61439100 0.0 1027530
21 апреля, ср
ср2101:00+4юв7164456 0.0 1027767
04:00+3юв81747100 0.0 1026674
07:00+3юв91747100 0.0 1025655
10:00+5юв91645100 0.0 1024839
13:00+5ююв91757100 0.4 1024913
16:00+3ююв91883100 2.3 1024781
19:00+3ююв91794100 3.2 1024822
22:00+3ююв81597100 4.6 1024806
22 апреля, чт
чт2201:00+4ююв71395100 0.7 1024699
04:00+4ююв61293100 0.7 1024667
07:00+4ююв61195100 0.6 1024637
10:00+3ююв61195100 0.6 1025560
13:00+5ююв51092100 0.0 1025596
16:00+6ююв61090100 0.0 1025617
19:00+6ююв61191100 0.0 1027516
22:00+6ююв5109299 0.0 1027423
23 апреля, пт
пт2301:00+5ююв499480 0.0 1027298
04:00+3ююв489894 0.0 1028241
07:00+5ююв4692100 0.0 1028345
10:00+8ююв458267 0.0 1028508
13:00+12ююв346553 0.0 1027947
16:00+13юв335858 0.0 10261301
19:00+10юв5875100 0.1 1026481
22:00+7вюв378870 0.1 1025159